Birchwood, AK

5:12 PM AKST on November 17, 2019 (GMT -0900)
Birchwood

Weather History for PABV - October, 2019

Change the Weather History Date:

Wednesday, October 23, 2019

  Actual Average Record
Temperature  
Mean Temperature 45 °F -  
Max Temperature 48 °F 32 °F 54 °F (2018)
Min Temperature 42 °F 21 °F 6 °F (1996)
Degree Days  
Heating Degree Days 20    
Moisture  
Dew Point 34 °F    
Average Humidity 65    
Maximum Humidity 79    
Minimum Humidity 54    
Precipitation  
Precipitation 0.00 in - - ()
Sea Level Pressure  
Sea Level Pressure 29.26 in    
Wind  
Wind Speed 11 mph (NE)    
Max Wind Speed 20 mph    
Max Gust Speed 26 mph    
Visibility 10 miles    
Events Rain    
Averages and records for this station are not official NWS values.
T = Trace of Precipitation, MM = Missing Value Source: NWS Daily Summary

Daily Weather History Graph

Daily Weather History Graph

Search for Another Location

Airport or City:

Astronomy

Oct. 23, 2019 Rise Set
Actual Time 9:02 AM AKDT 6:21 PM AKDT
Civil Twilight 8:16 AM AKDT 7:06 PM AKDT
Nautical Twilight 7:25 AM AKDT 7:57 PM AKDT
Astronomical Twilight 6:35 AM AKDT 8:47 PM AKDT
Moon 1:28 AM AKDT (10/23) 6:04 PM AKDT (10/23)
Length of Visible Light 10h 50m
Length of Day
9h 19m
Waning Crescent, 25% of the Moon is Illuminated
Oct 23
Waning Crescent
Oct 27
New
Nov 4
First Quarter
Nov 12
Full
Nov 19
Last Quarter

Hourly Weather History & Observations

Time (AKDT) Temp. Windchill Dew Point Humidity Pressure Visibility Wind Dir Wind Speed Gust Speed Precip Events Conditions
12:56 AM 45.0 °F 37.6 °F 32.0 °F 60% 29.64 in 10.0 mi NE 17.3 mph 24.2 mph N/A   Overcast
1:56 AM 43.0 °F 41.3 °F 30.9 °F 62% 29.58 in 10.0 mi Variable 3.5 mph - N/A   Clear
2:38 AM 44.6 °F 36.6 °F 30.2 °F 57% 29.50 in 10.0 mi NE 19.6 mph 26.5 mph N/A   Partly Cloudy
2:56 AM 46.0 °F 40.6 °F 34.0 °F 63% 29.50 in 10.0 mi NE 11.5 mph - N/A   Mostly Cloudy
3:56 AM 46.0 °F 39.6 °F 35.1 °F 66% 29.45 in 10.0 mi NE 15.0 mph - N/A   Overcast
4:56 AM 45.0 °F 37.6 °F 36.0 °F 71% 29.36 in 10.0 mi NE 17.3 mph 26.5 mph N/A   Overcast
5:56 AM 46.0 °F 39.6 °F 35.1 °F 66% 29.30 in 10.0 mi ENE 15.0 mph - 0.00 in Rain Light Rain
6:56 AM 45.0 °F 38.9 °F 37.0 °F 74% 29.25 in 10.0 mi ENE 12.7 mph - 0.00 in Rain Light Rain
7:56 AM 44.1 °F 36.8 °F 37.0 °F 76% 29.18 in 10.0 mi NNE 16.1 mph 21.9 mph 0.00 in   Scattered Clouds
8:56 AM 44.1 °F 40.8 °F 37.0 °F 76% 29.15 in 10.0 mi Variable 5.8 mph 18.4 mph N/A   Clear
9:56 AM 42.1 °F 40.2 °F 36.0 °F 79% 29.15 in 10.0 mi Variable 3.5 mph - N/A   Partly Cloudy
10:56 AM 43.0 °F 34.5 °F 35.1 °F 74% 29.18 in 10.0 mi SSW 19.6 mph 26.5 mph N/A   Overcast
11:56 AM 43.0 °F 39.5 °F 33.1 °F 68% 29.19 in 10.0 mi West 5.8 mph - 0.00 in Rain Light Rain
12:56 PM 46.0 °F 43.9 °F 32.0 °F 58% 29.21 in 10.0 mi South 4.6 mph - N/A   Mostly Cloudy
1:56 PM 46.9 °F - 35.1 °F 63% 29.18 in 10.0 mi Calm Calm - N/A   Partly Cloudy
2:56 PM 46.0 °F 42.5 °F 35.1 °F 66% 29.18 in 10.0 mi NNE 6.9 mph - N/A   Clear
3:56 PM 46.9 °F - 35.1 °F 63% 29.17 in 10.0 mi South 6.9 mph - N/A   Scattered Clouds
4:56 PM 46.9 °F - 33.1 °F 59% 29.16 in 10.0 mi NE 11.5 mph 16.1 mph N/A   Overcast
5:56 PM 48.0 °F - 32.0 °F 54% 29.15 in 10.0 mi East 4.6 mph - N/A   Overcast
6:56 PM 48.0 °F - 32.0 °F 54% 29.15 in 10.0 mi NE 6.9 mph - N/A   Overcast
7:56 PM 46.9 °F - 33.1 °F 59% 29.17 in 10.0 mi Variable 3.5 mph - N/A   Mostly Cloudy
8:56 PM 43.0 °F 40.3 °F 34.0 °F 71% 29.18 in 10.0 mi SE 4.6 mph - N/A   Overcast
9:56 PM 44.1 °F 42.5 °F 33.1 °F 65% 29.18 in 10.0 mi West 3.5 mph - N/A   Overcast
10:56 PM 43.0 °F - 33.1 °F 68% 29.20 in 10.0 mi Calm Calm - N/A   Overcast
11:56 PM 44.1 °F - 33.1 °F 65% 29.22 in 10.0 mi Calm Calm - N/A   Overcast